O3B FM14 (43233 NORAD) Tracking and Keplerian Element Data

This shows tracking and keplerian element data for the satellite.

Feedback or suggestion? Click here.




ElementValue
Catalog43233
NameO3B FM14
Epoch Orbit6486
Epoch Day268.92995525
Epoch Year2021
RAAN4.986
Inclination0.0591
Eccentricity0.000268
Argument of Perigee175.097
Mean Anonmoly179.9207
Mean Motion5.00116108
Decay Rate-2.6E-07
L11 43233U 18024C 21268.92995525 -.00000026 00000-0 00000+0 0 9993
L22 43233 0.0591 4.9860 0002680 175.0970 179.9207 5.00116108 64865

Live tracking and technical data element details for O3B FM14 (NORAD 43233). O3B FM14 can be tracked NOW for your location showing map with azimuth and elevation plus other details from your city location.

Track the satellite on the map from your city or location and see movement details for azimuth, elevation, latitude, longitude, range, height, and movement on the map or in text.







IsCatalogInMostPopularTable: catalog: 43233, numindb: 558
Update: records affected: 1



GetName: 43233 O3B FM14

Hit Count: updated at: Mon, 27 Sep 2021 00:49:40 GMT